Hourly Data Report for October 04, 2017

All times are specified in Local Standard Time (LST). Add 1 hour to adjust for Daylight Saving Time where and when it is observed.

GREENWOOD A
NOVA SCOTIA

44°59'00.000" N
64°55'00.000" W
28.00 m
8202000
71397
YZX

Download Data

Hourly Data (October 2017)
Hourly Data Report for October 4, 2017
Temp Definition
°C
Dew Point Temp Definition
°C
Rel Hum Definition
%
Wind Dir Definition
10's deg

Wind Spd Definition
km/h
Visibility Definition
km
Stn Press Definition
kPa
Hmdx Definition


Wind Chill Definition


Weather Definition


TIME
00:00 5.0 3.7 91   0 24.1 102.75     Mainly Clear
01:00 4.8 3.9 94 24 4 24.1 102.67     Mainly Clear
02:00 6.7 5.9 95 25 11 24.1 102.62     Mainly Clear
03:00 7.0 6.4 96 23 9 24.1 102.54     Mainly Clear
04:00 7.4 6.6 95 22 9 24.1 102.49     Mainly Clear
05:00 7.4 6.6 95 23 9 24.1 102.40     Mainly Clear
06:00 7.3 6.7 96 24 6 24.1 102.36     Mainly Clear
07:00 6.2 5.4 95 24 4 24.1 102.34     Mainly Clear
08:00 9.2 8.1 93 22 11 24.1 102.25     Mostly Cloudy
09:00 13.4 11.2 87 24 26 24.1 102.16     Mostly Cloudy
10:00 15.3 11.8 80 25 33 24.1 102.12     Mostly Cloudy
11:00 17.9 12.5 71 25 28 24.1 102.04     Mostly Cloudy
12:00 19.2 12.3 64 25 28 24.1 101.93     Mostly Cloudy
13:00 20.2 12.9 63 24 22 24.1 101.78     Mostly Cloudy
14:00 20.4 13.0 62 26 26 24.1 101.72     Mostly Cloudy
15:00 21.2 12.4 57 25 26 24.1 101.66     Mostly Cloudy
16:00 20.2 13.1 64 25 24 24.1 101.58     Mostly Cloudy
17:00 19.6 12.6 64 25 15 24.1 101.52     Mainly Clear
18:00 17.9 11.2 65 25 15 24.1 101.44     Mainly Clear
19:00 15.5 11.4 77 21 11 24.1 101.42     Mainly Clear
20:00 14.8 10.9 77 22 9 24.1 101.39     Mainly Clear
21:00 14.4 10.8 79 21 13 24.1 101.34     Mainly Clear
22:00 13.7 11.1 84 21 13 24.1 101.26     Clear
23:00 13.8 11.4 85 22 9 24.1 101.19     Mainly Clear

Notes on Data Quality.

Legend

  • E = Estimated
  • M = Missing
  • NA = Not Available
  • ‡ = Partner data that is not subject to review by the National Climate Archives
Date modified: